Weather in Bibikovo

Russia / Tambov Oblast     53°08′04″N   40°56′08″E
temp.,
°C
wind,
m/s
gust,
m/s
humid.,
%
clouds,
%
prec.,
mm/h
press.,
hPa
HPBL,
m
22 may, sun
sun2200:00+8se2265100 0.0 100515
03:00+7ese3367100 0.0 100364
06:00+8e3576100 0.0 1001158
09:00+11ene566287 0.0 999859
12:00+14ne6651100 0.1 9992073
15:00+12ne7760100 0.1 9991337
18:00+11ne6867100 0.1 999807
21:00+7nne6126636 0.1 1000423
23 may, mon
mon2300:00+4nne611725 0.0 1002362
03:00+1n48795 0.0 1004227
06:00+2n58725 0.0 1005411
09:00+6nnw675573 0.0 10051323
12:00+7nw6757100 0.0 10051628
15:00+7nw5858100 0.0 10061577
18:00+8wnw476320 0.0 1005972
21:00+5wsw477872 0.0 1006101
24 may, tue
tue2400:00+4wsw478299 0.0 1005114
03:00+3wsw497970 0.0 1005167
06:00+5w41074100 0.0 1005313
09:00+10w4756100 0.0 1005846
12:00+12wnw71149100 0.0 10062193
15:00+9nw5863100 0.1 10081275
18:00+8nw686999 0.3 10091284
21:00+4nnw348276 0.3 101187
25 may, wed
wed2500:00+3nnw33885 0.0 101251
03:00+1nnw33915 0.0 101457
06:00+3nnw35845 0.0 1015213
09:00+7nnw456369 0.0 10151336
12:00+8nw4559100 0.1 10161151
15:00+8nw4560100 0.1 10161459
18:00+8nw3567100 0.0 1017704
21:00+5w2278100 0.1 101726
26 may, thu
thu2600:00+5w237367 0.0 101766
03:00+3wsw338474 0.0 101654
06:00+6ssw3680100 0.0 1015175
09:00+12sw467381 0.0 1012681
12:00+18sw586132 0.4 10091226
15:00+18w71164100 1.4 10071694
18:00+14sw61380100 0.5 1005555
21:00+11ssw71395100 1.8 1003668